Stations météo

réclame
Mon MeteoGroup
Falsterbo, Suède (2616): Température de l'air & dewpoint: 10.01.2018 10:00:00 - 16.01.2018 10:00:00 (CET)Falsterbo, Suède (2616): Vitesse du vent: 10.01.2018 10:00:00 - 16.01.2018 10:00:00 (CET)Falsterbo, Suède (2616): Direction du vent: 10.01.2018 10:00:00 - 16.01.2018 10:00:00 (CET)Falsterbo, Suède (2616): reduced air pressure: 10.01.2018 10:00:00 - 16.01.2018 10:00:00 (CET)Falsterbo, Suède (2616): visibility: 10.01.2018 10:00:00 - 16.01.2018 10:00:00 (CET)
Date & Time tt [°C] td [°C] ff [km/h] ff [knt] dd ppp [hPa] vv [km]
16.01.2018 10:00:00 - - - - - - -
16.01.2018 09:00:00 - - - - - - -
16.01.2018 08:00:00 - - - - - - -
16.01.2018 07:00:00 3,3 3,0 47 25 S 984,5 2,3
16.01.2018 06:00:00 - - - - - - -
16.01.2018 05:00:00 - - - - - - -
16.01.2018 04:00:00 - - - - - - -
16.01.2018 03:00:00 - - - - - - -
16.01.2018 02:00:00 - - - - - - -
16.01.2018 01:00:00 - - - - - - -
16.01.2018 00:00:00 - - - - - - -
15.01.2018 23:00:00 - - - - - - -
15.01.2018 22:00:00 - - - - - - -
15.01.2018 21:00:00 - - - - - - -
15.01.2018 20:00:00 - - - - - - -
15.01.2018 19:00:00 2,3 -0,5 54 29 S 1001,6 13
15.01.2018 18:00:00 - - - - - - -
15.01.2018 17:00:00 - - - - - - -
15.01.2018 16:00:00 1,6 -1,1 54 29 SSE 1006,3 16
15.01.2018 15:00:00 - - - - - - -
15.01.2018 14:00:00 - - - - - - -
15.01.2018 13:00:00 1,0 -1,6 50 27 SSE 1011,1 10
15.01.2018 12:00:00 - - - - - - -
15.01.2018 11:00:00 - - - - - - -
15.01.2018 10:00:00 0,5 -2,1 50 27 SSE 1015,9 13
15.01.2018 09:00:00 - - - - - - -
15.01.2018 08:00:00 - - - - - - -
15.01.2018 07:00:00 0,0 -2,4 43 23 S 1019,4 23
15.01.2018 06:00:00 - - - - - - -
15.01.2018 05:00:00 - - - - - - -
15.01.2018 04:00:00 - - - - - - -
15.01.2018 03:00:00 - - - - - - -
15.01.2018 02:00:00 - - - - - - -
15.01.2018 01:00:00 - - - - - - -
15.01.2018 00:00:00 - - - - - - -
14.01.2018 23:00:00 - - - - - - -
14.01.2018 22:00:00 - - - - - - -
14.01.2018 21:00:00 - - - - - - -
14.01.2018 20:00:00 - - - - - - -
14.01.2018 19:00:00 -1,5 -4,7 29 16 SSE 1028,8 25
14.01.2018 18:00:00 - - - - - - -
14.01.2018 17:00:00 - - - - - - -
14.01.2018 16:00:00 -1,0 -4,2 25 14 SE 1030,1 14
14.01.2018 15:00:00 - - - - - - -
14.01.2018 14:00:00 - - - - - - -
14.01.2018 13:00:00 -0,2 -3,4 29 16 SE 1031,2 21
14.01.2018 12:00:00 - - - - - - -
14.01.2018 11:00:00 - - - - - - -
14.01.2018 10:00:00 -0,1 -3,8 25 14 SE 1032,3 18
14.01.2018 09:00:00 - - - - - - -
14.01.2018 08:00:00 - - - - - - -
14.01.2018 07:00:00 0,3 -3,1 29 16 SE 1032,3 22
14.01.2018 06:00:00 - - - - - - -
14.01.2018 05:00:00 - - - - - - -
14.01.2018 04:00:00 - - - - - - -
14.01.2018 03:00:00 - - - - - - -
14.01.2018 02:00:00 - - - - - - -
14.01.2018 01:00:00 - - - - - - -
14.01.2018 00:00:00 - - - - - - -
13.01.2018 23:00:00 - - - - - - -
13.01.2018 22:00:00 - - - - - - -
13.01.2018 21:00:00 - - - - - - -
13.01.2018 20:00:00 - - - - - - -
13.01.2018 19:00:00 0,2 -4,1 32 18 ESE 1034,9 35
13.01.2018 18:00:00 - - - - - - -
13.01.2018 17:00:00 - - - - - - -
13.01.2018 16:00:00 0,7 -3,2 29 16 SE 1034,7 27
13.01.2018 15:00:00 - - - - - - -
13.01.2018 14:00:00 - - - - - - -
13.01.2018 13:00:00 1,6 -1,6 29 16 SE 1035,2 20
13.01.2018 12:00:00 - - - - - - -
13.01.2018 11:00:00 - - - - - - -
13.01.2018 10:00:00 1,8 -1,1 32 18 ESE 1035,4 24
13.01.2018 09:00:00 - - - - - - -
13.01.2018 08:00:00 - - - - - - -
13.01.2018 07:00:00 1,8 -0,3 36 19 ESE 1034,7 23
13.01.2018 06:00:00 - - - - - - -
13.01.2018 05:00:00 - - - - - - -
13.01.2018 04:00:00 - - - - - - -
13.01.2018 03:00:00 - - - - - - -
13.01.2018 02:00:00 - - - - - - -
13.01.2018 01:00:00 - - - - - - -
13.01.2018 00:00:00 - - - - - - -
12.01.2018 23:00:00 - - - - - - -
12.01.2018 22:00:00 - - - - - - -
12.01.2018 21:00:00 - - - - - - -
12.01.2018 20:00:00 - - - - - - -
12.01.2018 19:00:00 1,9 -0,7 36 19 E 1034,1 28
12.01.2018 18:00:00 - - - - - - -
12.01.2018 17:00:00 - - - - - - -
12.01.2018 16:00:00 1,8 -0,6 29 16 E 1033,5 22
12.01.2018 15:00:00 - - - - - - -
12.01.2018 14:00:00 - - - - - - -
12.01.2018 13:00:00 2,2 -0,6 29 16 E 1033,1 23
12.01.2018 12:00:00 - - - - - - -
12.01.2018 11:00:00 - - - - - - -
12.01.2018 10:00:00 2,4 -0,4 40 21 E 1032,2 25
12.01.2018 09:00:00 - - - - - - -
12.01.2018 08:00:00 - - - - - - -
12.01.2018 07:00:00 2,6 0,2 32 18 E 1030,0 35
12.01.2018 06:00:00 - - - - - - -
12.01.2018 05:00:00 - - - - - - -
12.01.2018 04:00:00 - - - - - - -
12.01.2018 03:00:00 - - - - - - -
12.01.2018 02:00:00 - - - - - - -
12.01.2018 01:00:00 - - - - - - -
12.01.2018 00:00:00 - - - - - - -
11.01.2018 23:00:00 - - - - - - -
11.01.2018 22:00:00 - - - - - - -
11.01.2018 21:00:00 - - - - - - -
11.01.2018 20:00:00 - - - - - - -
11.01.2018 19:00:00 2,7 1,2 36 19 E 1023,0 15
11.01.2018 18:00:00 - - - - - - -
11.01.2018 17:00:00 - - - - - - -
11.01.2018 16:00:00 3,6 2,3 29 16 E 1021,2 18
11.01.2018 15:00:00 - - - - - - -
11.01.2018 14:00:00 - - - - - - -
11.01.2018 13:00:00 3,8 2,5 29 16 E 1019,7 12
11.01.2018 12:00:00 - - - - - - -
11.01.2018 11:00:00 - - - - - - -
11.01.2018 10:00:00 3,6 3,2 22 12 E 1018,9 5
11.01.2018 09:00:00 - - - - - - -
11.01.2018 08:00:00 - - - - - - -
11.01.2018 07:00:00 3,6 3,2 18 10 E 1016,9 1,4
11.01.2018 06:00:00 - - - - - - -
11.01.2018 05:00:00 - - - - - - -
11.01.2018 04:00:00 - - - - - - -
11.01.2018 03:00:00 - - - - - - -
11.01.2018 02:00:00 - - - - - - -
11.01.2018 01:00:00 - - - - - - -
11.01.2018 00:00:00 - - - - - - -
10.01.2018 23:00:00 - - - - - - -
10.01.2018 22:00:00 - - - - - - -
10.01.2018 21:00:00 - - - - - - -
10.01.2018 20:00:00 - - - - - - -
10.01.2018 19:00:00 4,1 3,1 22 12 ESE 1014,7 5
10.01.2018 18:00:00 - - - - - - -
10.01.2018 17:00:00 - - - - - - -
10.01.2018 16:00:00 4,1 3,5 29 16 ESE 1014,0 4,0
10.01.2018 15:00:00 - - - - - - -
10.01.2018 14:00:00 - - - - - - -
10.01.2018 13:00:00 4,0 3,6 18 10 SE 1013,7 4,1
10.01.2018 12:00:00 - - - - - - -
10.01.2018 11:00:00 - - - - - - -
10.01.2018 10:00:00 3,5 2,9 36 19 ESE 1013,7 1,9

tt = Température de l'air
td = dewpoint
ff = Vitesse du vent
dd = Direction du vent
ppp = reduced air pressure
vv = visibility

stations d'obs. à proximité